{"data":{"norad_id":58462,"intl_designator":"2023-185A","name":"GNOMES-4","alt_names":[],"object_type":"PAYLOAD","status":"ACTIVE","operator":null,"country":"US","launch_date":"2023-12-01","launch_site_code":"AFWTR","launch_vehicle":null,"mission":null,"orbit_class":"UNKNOWN","rcs_meters":null,"size_class":null,"mass_kg":null,"dimensions":null,"purposes":[],"wikipedia_slug":null,"has_3d_model":false,"image_url":null,"decayed_at":null,"tle_current":{"epoch":"2026-09-21T22:39:14.916096Z","epoch_age_seconds":120309,"freshness":"FRESH","line1":"1 58462U 23185A   26264.94392264  .00001712  00000+0  13740-3 0  9991","line2":"2 58462  97.4725 318.5206 0010655   5.9682 354.1668 15.01298442153809","mean_motion":15.01298442,"eccentricity":0.0010655,"inclination_deg":97.4725,"raan_deg":318.5206,"arg_perigee_deg":5.9682,"mean_anomaly_deg":354.1668,"bstar":0.0001374,"rev_number":15380,"period_min":95.916971583722,"perigee_km":555.49569194104,"apogee_km":570.2870233712,"semimajor_km":6941.0283576561,"source":"CELESTRAK","updated_at":"2026-09-22T09:00:26.667081Z"}}}